Location: Bannatyne
(13.0833°N, 59.5333°W)
Time: 13:37:14
(UTC+00:00)

Transit 2A - Pass Details

Date: 05 February 2020
Orbit: 599 x 959 km, 66.7° (Epoch: 25 February)

Event Time Altitude Azimuth Distance (km) Brightness Sun altitude
Rises 07:10:23 0° 341° (NNW) 3,218 - -46.8°
Reaches altitude 10° 07:12:40 10° 342° (NNW) 2,346 - -46.3°
Maximum altitude 07:18:06 81° 69° (ENE) 859 - -45.0°
Drops below altitude 10° 07:24:06 10° 157° (SSE) 2,575 - -43.5°
Exits shadow 07:24:44 - 157° (SSE) 2,812 9.2 -43.4°
Sets 07:26:43 0° 158° (SSE) 3,555 9.8 -42.9°
